Jackson, MI

9:19 PM EDT on August 17, 2019 (GMT -0400)
Jackson County-Reynolds

Weather History for KJXN - July, 2019

Change the Weather History Date:

Sunday, July 21, 2019

  Actual Average Record
Temperature  
Mean Temperature 74 °F 71 °F  
Max Temperature 83 °F 82 °F 96 °F (2011)
Min Temperature 65 °F 60 °F 45 °F (1965)
Degree Days  
Heating Degree Days 0 0  
Month to date heating degree days 0 1  
Since 1 June heating degree days 58 56  
Since 1 July heating degree days 0 1  
Cooling Degree Days 9 6  
Month to date cooling degree days 232 144  
Year to date cooling degree days 335 307  
Since 1 June cooling degree days 325 270  
Growing Degree Days 24 (Base 50)    
Moisture  
Dew Point 71 °F    
Average Humidity 85    
Maximum Humidity 100    
Minimum Humidity 69    
Precipitation  
Precipitation 0.43 in 0.12 in 2.25 in (1951)
Month to date precipitation 2.07 2.35  
Year to date precipitation 18.79 16.22  
Sea Level Pressure  
Sea Level Pressure 29.94 in    
Wind  
Wind Speed 5 mph (NNE)    
Max Wind Speed 14 mph    
Max Gust Speed 20 mph    
Visibility 8 miles    
Events Rain , Thunderstorm    
T = Trace of Precipitation, MM = Missing Value Source: NWS Daily Summary

Daily Weather History Graph

Daily Weather History Graph

Search for Another Location

Airport or City:

Astronomy

Jul. 21, 2019 Rise Set
Actual Time 6:19 AM EDT 9:08 PM EDT
Civil Twilight 5:46 AM EDT 9:41 PM EDT
Nautical Twilight 5:05 AM EDT 10:22 PM EDT
Astronomical Twilight 4:17 AM EDT 11:10 PM EDT
Moon 11:57 PM EDT (7/21) 10:43 AM EDT (7/21)
Length of Visible Light 15h 54m
Length of Day
14h 48m
Waning Gibbous, 80% of the Moon is Illuminated
Jul 21
Waning Gibbous
Jul 24
Last Quarter
Jul 31
New
Aug 7
First Quarter
Aug 15
Full

Hourly Weather History & Observations

Time (EDT) Temp. Heat Index Dew Point Humidity Pressure Visibility Wind Dir Wind Speed Gust Speed Precip Events Conditions
12:56 AM 73.0 °F - 70.0 °F 90% 29.90 in 10.0 mi NNW 6.9 mph - N/A   Clear
1:56 AM 72.0 °F - 71.1 °F 97% 29.92 in 10.0 mi North 4.6 mph - N/A Thunderstorm Overcast
2:17 AM 72.0 °F - 71.1 °F 97% 29.93 in 10.0 mi NNE 4.6 mph - N/A Thunderstorm Thunderstorm
2:46 AM 72.0 °F - 71.1 °F 97% 29.93 in 10.0 mi North 3.5 mph - N/A   Overcast
2:56 AM 72.0 °F - 71.1 °F 97% 29.91 in 10.0 mi NNE 3.5 mph - N/A   Overcast
3:06 AM 71.1 °F - 71.1 °F 100% 29.93 in 1.8 mi Calm Calm - 0.10 in Rain Rain
3:11 AM 71.1 °F - 71.1 °F 100% 29.92 in 4.0 mi ENE 5.8 mph - 0.10 in Rain Light Rain
3:18 AM 71.1 °F - 71.1 °F 100% 29.93 in 6.0 mi Calm Calm - 0.11 in Thunderstorm Overcast
3:21 AM 71.1 °F - 71.1 °F 100% 29.92 in 2.5 mi NNE 5.8 mph - 0.19 in Rain , Thunderstorm Light Thunderstorms and Rain
3:29 AM 71.1 °F - 71.1 °F 100% 29.92 in 1.8 mi NNE 4.6 mph - 0.21 in Rain , Thunderstorm Light Thunderstorms and Rain
3:32 AM 71.1 °F - 71.1 °F 100% 29.92 in 3.0 mi North 4.6 mph - 0.21 in Rain Light Rain
3:56 AM 71.1 °F - 71.1 °F 100% 29.89 in 8.0 mi North 4.6 mph - 0.21 in   Overcast
4:09 AM 71.1 °F - 71.1 °F 100% 29.92 in 5.0 mi Calm Calm - N/A   Mostly Cloudy
4:14 AM 71.1 °F - 71.1 °F 100% 29.92 in 5.0 mi Calm Calm - N/A Thunderstorm Mostly Cloudy
4:24 AM 71.1 °F - 71.1 °F 100% 29.93 in 6.0 mi Calm Calm - N/A Thunderstorm Mostly Cloudy
4:35 AM 72.0 °F - 71.1 °F 97% 29.93 in 9.0 mi North 3.5 mph - N/A   Overcast
4:52 AM 71.6 °F - 71.6 °F 100% 29.95 in 10.0 mi Variable 3.5 mph - N/A   Overcast
4:56 AM 72.0 °F - 71.1 °F 97% 29.93 in 10.0 mi NNW 3.5 mph - N/A   Overcast
5:11 AM 72.0 °F - 71.1 °F 97% 29.96 in 10.0 mi NNW 6.9 mph - N/A   Overcast
5:24 AM 72.0 °F - 71.1 °F 97% 29.94 in 10.0 mi NNE 3.5 mph - N/A   Overcast
5:46 AM 71.1 °F - 70.0 °F 96% 29.93 in 9.0 mi ENE 3.5 mph - N/A   Mostly Cloudy
5:56 AM 71.1 °F - 70.0 °F 96% 29.90 in 9.0 mi East 3.5 mph - N/A   Partly Cloudy
6:56 AM 71.1 °F - 70.0 °F 96% 29.94 in 8.0 mi Calm Calm - N/A   Scattered Clouds
7:10 AM 72.0 °F - 71.1 °F 97% 29.96 in 8.0 mi Calm Calm - N/A   Mostly Cloudy
7:23 AM 71.1 °F - 71.1 °F 100% 29.96 in 7.0 mi Calm Calm - N/A   Scattered Clouds
7:56 AM 71.1 °F - 71.1 °F 100% 29.95 in 6.0 mi Calm Calm - N/A   Clear
8:08 AM 71.1 °F - 71.1 °F 100% 29.97 in 5.0 mi Calm Calm - N/A   Scattered Clouds
8:56 AM 72.0 °F - 71.1 °F 97% 29.96 in 10.0 mi Calm Calm - N/A   Scattered Clouds
9:12 AM 73.0 °F - 71.1 °F 93% 29.98 in 10.0 mi Calm Calm - N/A   Mostly Cloudy
9:30 AM 73.0 °F - 71.1 °F 93% 29.98 in 10.0 mi South 3.5 mph - N/A   Mostly Cloudy
9:56 AM 73.0 °F - 71.1 °F 93% 29.95 in 10.0 mi SSE 4.6 mph - N/A   Mostly Cloudy
10:03 AM 73.9 °F - 71.1 °F 91% 29.96 in 10.0 mi SE 3.5 mph - N/A   Scattered Clouds
10:28 AM 73.9 °F - 71.1 °F 91% 29.96 in 10.0 mi Variable 3.5 mph - N/A   Mostly Cloudy
10:35 AM 73.9 °F - 71.1 °F 91% 29.95 in 10.0 mi Variable 4.6 mph - N/A   Scattered Clouds
10:42 AM 73.9 °F - 71.1 °F 91% 29.95 in 10.0 mi East 3.5 mph - N/A   Mostly Cloudy
10:52 AM 75.2 °F - 71.6 °F 89% 29.95 in 10.0 mi East 4.6 mph - N/A   Scattered Clouds
10:56 AM 75.0 °F - 71.1 °F 87% 29.94 in 10.0 mi Variable 3.5 mph - N/A   Scattered Clouds
11:52 AM 75.2 °F - 71.6 °F 89% 29.97 in 10.0 mi Variable 3.5 mph - N/A   Mostly Cloudy
11:56 AM 75.9 °F - 71.1 °F 85% 29.96 in 10.0 mi NW 4.6 mph - N/A   Mostly Cloudy
12:56 PM 79.0 °F - 71.1 °F 77% 29.96 in 10.0 mi NW 3.5 mph - N/A   Overcast
1:31 PM 79.0 °F - 70.0 °F 74% 29.97 in 10.0 mi NNW 3.5 mph - N/A   Mostly Cloudy
1:56 PM 81.0 °F 85.2 °F 72.0 °F 74% 29.95 in 10.0 mi North 9.2 mph - N/A   Mostly Cloudy
2:56 PM 82.0 °F 86.3 °F 71.1 °F 69% 29.93 in 10.0 mi Variable 4.6 mph - N/A   Mostly Cloudy
3:42 PM 82.0 °F 85.9 °F 70.0 °F 67% 29.93 in 10.0 mi Calm Calm - N/A   Mostly Cloudy
3:52 PM 82.4 °F 86.3 °F 69.8 °F 66% 29.94 in 10.0 mi NNW 5.8 mph - N/A   Overcast
3:56 PM 81.0 °F 84.4 °F 70.0 °F 69% 29.92 in 10.0 mi Variable 6.9 mph - N/A   Overcast
4:56 PM 80.1 °F 83.2 °F 70.0 °F 71% 29.91 in 10.0 mi North 6.9 mph - N/A   Overcast
5:56 PM 75.9 °F - 71.1 °F 85% 29.91 in 4.0 mi North 5.8 mph - 0.07 in Rain Rain
6:56 PM 75.9 °F - 71.1 °F 85% 29.91 in 9.0 mi North 5.8 mph - 0.01 in Rain Light Rain
7:56 PM 73.0 °F - 70.0 °F 90% 29.93 in 9.0 mi North 6.9 mph - 0.03 in Rain Light Rain
8:56 PM 71.1 °F - 69.1 °F 93% 29.95 in 5.0 mi ENE 6.9 mph - 0.04 in Rain Light Rain
9:56 PM 68.0 °F - 64.9 °F 90% 29.98 in 10.0 mi East 10.4 mph - 0.06 in Rain Light Rain
10:56 PM 66.9 °F - 64.0 °F 90% 29.96 in 10.0 mi East 12.7 mph 19.6 mph 0.01 in   Mostly Cloudy
11:56 PM 66.0 °F - 64.0 °F 93% 29.94 in 10.0 mi ENE 3.5 mph - N/A   Overcast